FW9022 Weather Reports


Display with metric or nautical units.
time (UTC)temp
F
wind
direction
speed
MPH
gust
MPH
rain 1hr
in
rain 24hr
in
rain mn
in
humidity
%
barometer
mb
20260508161857 63 103 1.0 5.0 0.00 0.00 0.00 54 1016.2
20260508160901 63 121 2.0 7.0 0.00 0.00 0.00 55 1016.5
20260508155820 62 236 1.0 5.0 0.00 0.00 0.00 57 1016.8
20260508154854 61 24 2.0 4.0 0.00 0.00 0.00 56 1016.8
20260508153827 61 355 3.0 5.0 0.00 0.00 0.00 56 1017.1
20260508152825 60 17 2.0 4.0 0.00 0.01 0.00 55 1017.2
20260508151820 60 9 1.0 4.0 0.00 0.01 0.00 55 1017.2
20260508150845 59 36 0.0 5.0 0.00 0.01 0.00 58 1017.2
20260508145829 59 64 0.0 3.0 0.00 0.01 0.00 58 1017.6
20260508144824 58 38 0.0 4.0 0.00 0.01 0.00 58 1017.6
20260508143858 58 32 0.0 1.0 0.00 0.01 0.00 60 1017.6
20260508142831 58 32 1.0 3.0 0.00 0.01 0.00 59 1017.8
20260508141830 57 32 0.0 2.0 0.00 0.01 0.00 58 1017.8
20260508140835 56 32 1.0 3.0 0.00 0.01 0.00 60 1017.9
20260508135836 56 82 2.0 3.0 0.00 0.01 0.00 58 1017.8
20260508134830 56 133 1.0 2.0 0.00 0.01 0.00 66 1017.8
20260508133828 56 134 0.0 3.0 0.00 0.01 0.00 73 1017.9
20260508132822 56 133 0.0 3.0 0.00 0.01 0.00 77 1018.2
20260508131836 55 214 0.0 0.0 0.00 0.01 0.00 79 1018.2
20260508130905 53 214 0.0 1.0 0.00 0.01 0.00 86 1018.0
20260508125824 50 214 0.0 1.0 0.00 0.01 0.00 93 1018.1
20260508124837 49 214 0.0 1.0 0.00 0.01 0.00 94 1018.1
20260508123830 47 214 0.0 1.0 0.00 0.01 0.00 96 1017.5
20260508122847 46 214 0.0 1.0 0.00 0.02 0.00 97 1017.4
20260508121901 45 214 0.0 1.0 0.00 0.02 0.00 97 1017.4
20260508120844 44 214 0.0 0.0 0.00 0.02 0.00 97 1017.1
20260508115823 43 214 0.0 0.0 0.00 0.02 0.00 97 1017.0
20260508114822 42 214 0.0 0.0 0.00 0.02 0.00 97 1017.0
20260508113837 42 214 0.0 0.0 0.00 0.02 0.00 96 1017.0
20260508112851 41 214 0.0 0.0 0.00 0.15 0.00 96 1016.6
20260508111823 41 214 0.0 0.0 0.00 0.15 0.00 96 1016.6
20260508110833 41 214 0.0 0.0 0.00 0.15 0.00 96 1016.4
20260508105833 41 214 0.0 0.0 0.00 0.15 0.00 96 1016.1
20260508104847 41 214 0.0 0.0 0.00 0.15 0.00 96 1016.1
20260508103820 41 214 0.0 0.0 0.00 0.15 0.00 96 1015.9
20260508102818 41 215 0.0 0.0 0.00 0.16 0.00 96 1015.9
20260508101832 41 214 0.0 0.0 0.00 0.16 0.00 96 1015.9
20260508100858 41 214 0.0 0.0 0.00 0.16 0.00 96 1015.7
20260508095820 42 215 0.0 0.0 0.00 0.16 0.00 96 1015.3
20260508094854 42 215 0.0 0.0 0.00 0.16 0.00 96 1015.3
20260508093847 42 215 0.0 0.0 0.00 0.16 0.00 96 1015.3
20260508092820 42 215 0.0 0.0 0.00 0.16 0.00 96 1015.4
20260508091855 43 214 0.0 0.0 0.00 0.16 0.00 96 1015.4
20260508090843 43 215 0.0 0.0 0.00 0.16 0.00 96 1015.9
20260508085824 43 214 0.0 0.0 0.00 0.16 0.00 96 1015.9
20260508084838 43 214 0.0 0.0 0.00 0.16 0.00 96 1015.9
20260508083836 44 214 0.0 0.0 0.00 0.16 0.00 95 1015.7
20260508082830 44 214 0.0 0.0 0.00 0.16 0.00 96 1015.4
20260508081844 44 215 0.0 0.0 0.00 0.16 0.00 95 1015.4
20260508080848 44 215 0.0 1.0 0.00 0.16 0.00 95 1015.4
20260508075852 45 215 0.0 0.0 0.00 0.16 0.00 95 1015.1
20260508074825 45 215 0.0 0.0 0.00 0.16 0.00 95 1015.1
20260508073859 45 214 0.0 0.0 0.00 0.16 0.00 95 1015.2
20260508072832 46 214 0.0 1.0 0.00 0.17 0.00 96 1015.0
20260508071830 46 215 0.0 0.0 0.00 0.17 0.00 96 1015.0
20260508070835 46 215 0.0 0.0 0.00 0.17 0.00 96 1014.7
20260508065831 46 215 0.0 1.0 0.00 0.17 0.00 96 1014.7
20260508064826 46 259 0.0 1.0 0.00 0.17 0.00 96 1014.7
20260508063824 46 259 0.0 0.0 0.00 0.17 0.00 96 1014.7
20260508062818 46 259 0.0 0.0 0.00 0.17 0.00 96 1014.7
20260508061831 46 259 0.0 0.0 0.00 0.17 0.00 96 1014.7
20260508060841 46 259 0.0 0.0 0.00 0.17 0.00 96 1014.7
20260508055820 46 259 0.0 0.0 0.00 0.17 0.00 96 1014.8
20260508054835 47 259 0.0 0.0 0.00 0.17 0.00 96 1014.8
20260508053829 47 259 0.0 0.0 0.00 0.17 0.00 96 1014.9
20260508052828 47 259 0.0 0.0 0.00 0.23 0.00 96 1015.0
20260508051821 47 259 0.0 0.0 0.00 0.23 0.00 96 1015.0
20260508050847 47 259 0.0 1.0 0.00 0.23 0.00 96 1014.8
20260508045831 46 259 0.0 1.0 0.00 0.23 0.00 96 1014.7
20260508044826 46 259 0.0 0.0 0.00 0.23 0.00 96 1014.7
20260508043821 46 259 0.0 0.0 0.00 0.23 0.00 96 1014.7
20260508042819 46 259 0.0 0.0 0.00 0.27 0.00 96 1014.7
20260508041834 46 259 1.0 2.0 0.00 0.27 0.00 96 1014.7
20260508040838 46 49 0.0 0.0 0.00 0.27 0.00 96 1014.7
20260508035819 46 49 0.0 0.0 0.00 0.27 0.24 95 1014.7
20260508034818 46 49 0.0 0.0 0.00 0.27 0.24 95 1014.7
20260508033832 47 49 0.0 0.0 0.00 0.27 0.24 95 1014.7
20260508032826 47 49 0.0 0.0 0.00 0.27 0.24 95 1014.8
20260508031824 47 49 0.0 0.0 0.00 0.27 0.24 95 1014.8
20260508030849 47 49 0.0 0.0 0.00 0.27 0.24 95 1014.7
20260508025830 47 49 0.0 0.0 0.00 0.27 0.24 95 1014.8
20260508024824 47 49 0.0 0.0 0.00 0.27 0.24 95 1014.8
20260508023843 48 49 0.0 1.0 0.00 0.27 0.24 95 1014.5
20260508022836 48 49 0.0 1.0 0.00 0.30 0.24 95 1014.1
20260508021831 48 49 0.0 0.0 0.00 0.30 0.24 94 1014.1
20260508020835 48 49 0.0 1.0 0.00 0.30 0.24 94 1014.0
20260508015819 49 49 0.0 0.0 0.00 0.30 0.24 93 1014.8
20260508014834 49 49 0.0 0.0 0.00 0.30 0.24 93 1014.8
20260508013848 49 49 0.0 0.0 0.00 0.30 0.24 93 1014.5
20260508012840 50 49 0.0 1.0 0.00 0.33 0.24 93 1014.3
20260508011817 50 49 1.0 2.0 0.00 0.33 0.24 92 1014.3
20260508010842 51 49 0.0 0.0 0.00 0.33 0.24 91 1014.2
20260508005823 51 49 0.0 1.0 0.00 0.33 0.24 90 1014.2
20260508004821 52 49 0.0 0.0 0.00 0.33 0.24 90 1014.2
20260508003836 53 49 0.0 0.0 0.00 0.33 0.24 89 1013.8
20260508002830 53 49 0.0 0.0 0.00 0.40 0.24 88 1013.6
20260508001824 54 49 0.0 1.0 0.00 0.40 0.24 85 1013.6
20260508000833 54 49 0.0 4.0 0.00 0.40 0.24 85 1013.5
20260507235833 54 94 0.0 2.0 0.00 0.40 0.24 85 1013.4
20260507234827 54 94 0.0 2.0 0.00 0.40 0.24 85 1013.4
20260507233824 55 103 0.0 3.0 0.00 0.40 0.24 84 1013.4
20260507232819 55 178 0.0 2.0 0.00 0.46 0.24 85 1013.2
20260507231834 55 86 0.0 2.0 0.00 0.46 0.24 85 1013.2
20260507230838 55 348 0.0 6.0 0.00 0.46 0.24 85 1013.4
20260507225822 54 80 2.0 5.0 0.00 0.46 0.24 85 1013.4
20260507224835 54 43 3.0 5.0 0.00 0.46 0.24 85 1013.4
20260507223829 54 22 4.0 6.0 0.00 0.46 0.24 85 1013.0
20260507222827 54 71 2.0 7.0 0.00 0.48 0.24 85 1013.0
20260507221821 54 57 1.0 10.0 0.00 0.48 0.24 85 1013.0
20260507220846 54 5 6.0 11.0 0.00 0.48 0.24 85 1012.6
20260507215825 54 64 3.0 5.0 0.00 0.48 0.24 85 1012.5
20260507214824 55 48 3.0 7.0 0.00 0.48 0.24 85 1012.5
20260507213818 55 79 2.0 7.0 0.00 0.48 0.24 86 1012.3
20260507212853 55 31 4.0 12.0 0.00 0.49 0.24 86 1011.7
20260507211829 56 310 2.0 11.0 0.00 0.49 0.24 85 1011.7
20260507210835 57 315 2.0 10.0 0.00 0.49 0.24 84 1011.2
20260507205834 58 53 2.0 6.0 0.00 0.49 0.24 84 1010.9
20260507204829 58 355 2.0 11.0 0.00 0.49 0.24 84 1010.9
20260507203847 58 17 3.0 6.0 0.00 0.49 0.24 84 1010.9
20260507202841 58 13 2.0 6.0 0.00 0.49 0.24 84 1010.9
20260507201834 58 61 3.0 6.0 0.00 0.49 0.24 84 1010.9
20260507200838 58 22 3.0 7.0 0.00 0.49 0.24 84 1010.9
20260507195822 60 11 4.0 12.0 0.00 0.49 0.24 82 1010.4
20260507194836 61 77 2.0 6.0 0.00 0.49 0.24 81 1010.4
20260507193850 61 38 3.0 5.0 0.00 0.49 0.24 82 1010.3
20260507192823 61 12 4.0 7.0 0.00 0.49 0.24 82 1011.3
20260507191842 62 13 3.0 5.0 0.00 0.49 0.24 82 1011.3
20260507190845 62 28 2.0 4.0 0.00 0.49 0.24 82 1010.9
20260507185826 61 360 0.0 6.0 0.00 0.49 0.24 84 1011.4
20260507184825 61 5 1.0 6.0 0.00 0.49 0.24 83 1011.4
20260507183820 62 49 1.0 4.0 0.00 0.49 0.24 84 1011.4
20260507182834 62 50 3.0 4.0 0.00 0.50 0.24 84 1011.6
20260507181828 61 22 1.0 4.0 0.00 0.50 0.24 84 1011.6
20260507180836 61 66 1.0 5.0 0.00 0.50 0.24 84 1011.5
20260507175835 62 42 1.0 5.0 0.00 0.50 0.24 84 1011.3
20260507174829 63 49 2.0 3.0 0.00 0.50 0.24 84 1011.3
20260507173827 62 100 2.0 3.0 0.00 0.50 0.24 85 1011.1
20260507172820 62 56 2.0 5.0 0.00 0.50 0.24 84 1011.3
20260507171834 62 35 3.0 5.0 0.00 0.50 0.24 86 1011.3
20260507170839 62 62 3.0 5.0 0.00 0.50 0.24 86 1011.1
20260507165823 62 9 2.0 6.0 0.00 0.50 0.24 87 1010.9
20260507164838 62 360 2.0 5.0 0.00 0.50 0.24 87 1010.9
20260507163829 61 11 1.0 5.0 0.00 0.50 0.24 88 1010.9
20260507162843 62 55 1.0 6.0 0.00 0.59 0.24 89 1011.0